This is the latest recevied weather packets stored in our database for station/object K5FEP. If no packets are shown the sender has not sent any weather packets the latest 10 day(s).
| Time | Temp. | Humidity | Pressure | Rain* | Wind** | Luminosity | Snow |
|---|---|---|---|---|---|---|---|
| 1788520959 | 25° C | 85% | 1015.5 hPa | 0 mm | - | 30 W/m² | - |
| 1788520655 | 25° C | 85% | 1015.4 hPa | 0 mm | - | 26 W/m² | - |
| 1788520350 | 25° C | 85% | 1015.4 hPa | 0 mm | - | 21 W/m² | - |
| 1788520045 | 25° C | 85% | 1015.3 hPa | 0 mm | - | 17 W/m² | - |
| 1788519744 | 25° C | 85% | 1015.3 hPa | 0 mm | - | 12 W/m² | - |
| 1788519440 | 25° C | 84% | 1015.3 hPa | 0 mm | - | 9 W/m² | - |
| 1788519134 | 25° C | 84% | 1015.3 hPa | 0 mm | - | 5 W/m² | - |
| 1788518830 | 25° C | 84% | 1015 hPa | 0 mm | - | 3 W/m² | - |
| 1788518525 | 25° C | 83% | 1015.1 hPa | 0 mm | - | 1 W/m² | - |
| 1788518222 | 25° C | 83% | 1015.4 hPa | 0 mm | - | 0 W/m² | - |
| 1788517917 | 25° C | 84% | 1014.9 hPa | 0 mm | - | 0 W/m² | - |
| 1788517613 | 25° C | 84% | 1014.9 hPa | 0 mm | - | 0 W/m² | - |
| 1788517307 | 25° C | 85% | 1015 hPa | 0 mm | - | 0 W/m² | - |
| 1788517004 | 25° C | 84% | 1015.1 hPa | 0 mm | - | 0 W/m² | - |
| 1788516700 | 25° C | 84% | 1015 hPa | 0 mm | - | 0 W/m² | - |
| 1788516396 | 25° C | 84% | 1014.9 hPa | 0 mm | - | 0 W/m² | - |
| 1788516091 | 25.56° C | 83% | 1014.9 hPa | 0 mm | - | 0 W/m² | - |
| 1788515785 | 25.56° C | 83% | 1014.9 hPa | 0 mm | - | 0 W/m² | - |
| 1788515485 | 25.56° C | 83% | 1015.2 hPa | 0 mm | - | 0 W/m² | - |
| 1788515180 | 25.56° C | 83% | 1015 hPa | 0 mm | - | 0 W/m² | - |
| 1788514876 | 25.56° C | 83% | 1014.9 hPa | 0 mm | - | 0 W/m² | - |
| 1788514573 | 25.56° C | 83% | 1014.7 hPa | 0 mm | - | 0 W/m² | - |
| 1788514272 | 25° C | 84% | 1014.9 hPa | 0 mm | - | 0 W/m² | - |
| 1788513969 | 25° C | 85% | 1014.8 hPa | 0 mm | - | 0 W/m² | - |
| 1788513665 | 25° C | 84% | 1014.7 hPa | 0 mm | - | 0 W/m² | - |
* Rain latest hour (hover to see other rain measurements)
** Current wind speed in m/s (hover to see current wind gust speed)